Location: Ripley
(48.3812°N, 115.4473°W)
Time: 12:51:18
(UTC+00:00)

RS-15 - Pass Details

Date: 28 June 2022
Orbit: 1881 x 2163 km, 64.8° (Epoch: 13 August)

Event Time Altitude Azimuth Distance (km) Brightness Sun altitude
Rises 07:50:31 0° 321° (NW) 5,698 11.3 -18.3°
Reaches altitude 10° 07:54:00 10° 320° (NW) 4,693 10.7 -18.3°
Maximum altitude 08:06:20 77° 238° (WSW) 2,185 8.1 -18.2°
Enters shadow 08:16:52 15° 156° (SSE) 4,147 9.2 -18.0°
